Tracking 25734 objects as of 26-May-2022
HD Live streaming from Space Station
objects crossing your sky now

FLOCK 3P 2

Track FLOCK 3P 2 now!
10-day predictions
FLOCK 3P 2 is classified as:


NORAD ID: 41966
Int'l Code: 2017-008U
Perigee: 467.0 km
Apogee: 474.5 km
Inclination: 97.3 °
Period: 93.9 minutes
Semi major axis: 6841 km
RCS: Unknown
Launch date: February 15, 2017
Source: United States (US)
Launch site: SRIHARIKOTA (SRI)
aabbcc
Your satellite tracking list
Your tracking list is empty




NASA's NSSDC Master Catalog

Two Line Element Set (TLE):
1 41966U 17008U   22145.68305173  .00058361  00000-0  17592-2 0  9998
2 41966  97.2789 212.4044 0005416 296.1942  63.8744 15.34093586293433
Source of the keplerian elements: AFSPC